Weather History for Pocatello, ID

Change the Weather History Date:

Wednesday, March 6, 2013

  Actual Average Record
Temperature  
Mean Temperature 39 °F 35 °F  
Max Temperature 54 °F 45 °F 61 °F (1986)
Min Temperature 23 °F 25 °F 0 °F (1945)
Degree Days  
Heating Degree Days 26 30  
Month to date heating degree days 172 187  
Since 1 July heating degree days 5283 5460  
Cooling Degree Days 0 0  
Month to date cooling degree days 0 0  
Year to date cooling degree days 0 0  
Moisture  
Dew Point 27 °F    
Average Humidity 65    
Maximum Humidity 92    
Minimum Humidity 38    
Precipitation  
Precipitation 0.27 in 0.04 in 0.44 in (1975)
Month to date precipitation 0.29 0.25  
Year to date precipitation 1.37 2.21  
Snow  
Snow 0.20 in - - ()
Month to date snowfall 0.2  
Since 1 July snowfall 33.8  
Snow Depth 0.00 in    
Sea Level Pressure  
Sea Level Pressure 29.87 in    
Wind  
Wind Speed 12 mph (SW)    
Max Wind Speed 31 mph    
Max Gust Speed 40 mph    
Visibility 8 miles    
Events Rain , Snow    
T = Trace of Precipitation, MM = Missing Value Source: NWS Daily Summary

Daily Weather History Graph

Daily Weather History Graph

Search for Another Location

Airport:

Trip Planner

Search our weather history database for the weather conditions in past years. The results will help you decide how hot, cold, wet, or windy it might be!

Date:

Astronomy

Mar. 06, 2013 Rise Set
Actual Time 6:57 AM MST 6:26 PM MST
Civil Twilight 6:29 AM MST 6:54 PM MST
Nautical Twilight 5:56 AM MST 7:27 PM MST
Astronomical Twilight 5:23 AM MST 8:00 PM MST
Moon 3:16 AM MST (3/6) 1:06 PM MST (3/6)
Length of Visible Light 12h 25m
Length of Day
11h 28m
Waning Crescent, 29% of the Moon is Illuminated
Mar 6
Waning Crescent
Mar 11
New
Mar 19
First Quarter
Mar 27
Full
Apr 2
Last Quarter

Hourly Weather History & Observations

Time (MST) Temp. Windchill Dew Point Humidity Pressure Visibility Wind Dir Wind Speed Gust Speed Precip Events Conditions
12:53 AM 26.1 °F - 21.0 °F 81% 29.94 in 10.0 mi Calm Calm - N/A   Clear
1:53 AM 26.1 °F - 21.0 °F 81% 29.92 in 10.0 mi Calm Calm - N/A   Clear
2:53 AM 27.0 °F 23.0 °F 21.9 °F 81% 29.88 in 10.0 mi North 3.5 mph - N/A   Clear
3:53 AM 27.0 °F 20.5 °F 23.0 °F 85% 29.86 in 10.0 mi North 5.8 mph - N/A   Clear
4:53 AM 26.1 °F 21.9 °F 21.0 °F 81% 29.86 in 10.0 mi NNW 3.5 mph - N/A   Clear
5:53 AM 27.0 °F - 21.9 °F 81% 29.87 in 10.0 mi Calm Calm - N/A   Mostly Cloudy
6:53 AM 28.9 °F 21.1 °F 24.1 °F 82% 29.86 in 10.0 mi North 8.1 mph - N/A   Overcast
7:53 AM 36.0 °F 28.5 °F 26.1 °F 67% 29.82 in 10.0 mi NNE 10.4 mph - N/A   Mostly Cloudy
8:53 AM 43.0 °F 38.2 °F 25.0 °F 49% 29.81 in 10.0 mi WSW 8.1 mph - N/A   Overcast
9:53 AM 39.9 °F 35.1 °F 26.1 °F 58% 29.84 in 10.0 mi NNW 6.9 mph - N/A   Overcast
10:53 AM 44.1 °F 37.7 °F 26.1 °F 49% 29.83 in 10.0 mi West 12.7 mph 18.4 mph N/A   Overcast
11:53 AM 42.1 °F 37.7 °F 28.9 °F 60% 29.83 in 10.0 mi Variable 6.9 mph - N/A   Mostly Cloudy
12:53 PM 53.1 °F - 28.9 °F 40% 29.76 in 10.0 mi South 24.2 mph 31.1 mph 0.00 in   Mostly Cloudy
1:53 PM 53.1 °F - 30.0 °F 41% 29.72 in 10.0 mi South 20.7 mph 32.2 mph N/A   Scattered Clouds
2:53 PM 51.1 °F - 30.0 °F 44% 29.71 in 10.0 mi South 23.0 mph 32.2 mph N/A   Scattered Clouds
3:34 PM 42.8 °F 33.1 °F 33.8 °F 70% 29.78 in 10.0 mi WNW 25.3 mph 32.2 mph 0.00 in Rain Light Rain
3:53 PM 39.0 °F 28.5 °F 35.1 °F 86% 29.86 in 3.0 mi West 23.0 mph 35.7 mph 0.01 in Rain Light Rain
4:53 PM 36.0 °F 30.3 °F 34.0 °F 93% 29.89 in 5.0 mi SSW 6.9 mph - 0.08 in Rain Light Rain
5:12 PM 33.8 °F 27.7 °F 32.0 °F 93% 29.84 in 1.0 mi SSW 6.9 mph - 0.05 in Rain , Snow Light Snow
5:38 PM 33.8 °F 27.0 °F 30.2 °F 87% 29.84 in 3.0 mi South 8.1 mph - 0.12 in Rain , Snow Light Snow
5:53 PM 33.1 °F 24.9 °F 32.0 °F 96% 29.91 in 5.0 mi South 10.4 mph - 0.12 in   Overcast
6:53 PM 34.0 °F 25.5 °F 32.0 °F 92% 29.93 in 6.0 mi South 11.5 mph - 0.06 in Snow Light Snow
7:53 PM 36.0 °F 23.2 °F 30.0 °F 79% 29.95 in 5.0 mi WSW 28.8 mph 33.4 mph 0.00 in Snow Light Snow
8:22 PM 33.8 °F 23.5 °F 32.0 °F 93% 29.91 in 10.0 mi SW 16.1 mph - 0.00 in   Overcast
8:53 PM 35.1 °F 26.4 °F 30.0 °F 82% 29.90 in 10.0 mi South 12.7 mph - 0.00 in   Overcast
9:53 PM 37.9 °F 27.3 °F 25.0 °F 60% 29.94 in 10.0 mi SW 21.9 mph 29.9 mph N/A   Clear
10:53 PM 37.0 °F 27.0 °F 24.1 °F 59% 29.95 in 10.0 mi SW 18.4 mph - N/A   Clear
11:53 PM 35.1 °F 27.9 °F 23.0 °F 61% 29.98 in 10.0 mi SSW 9.2 mph 18.4 mph N/A   Clear